Flag Weather past 2 weeks in Kagoshima, Japan

Now
58 °F

Cool.


Feels Like: 57 °F
Forecast: 58 / 70 °F
Wind: 6 mph from Northeast

Location: Kagoshima

Current Time: Nov 28, 2014 at 5:50:04 AM

Latest Report: Nov 28, 2014 at 5:00 AM


Visibility: N/A

Pressure: 30.15 "Hg

Humidity: 82%

Dew point: 53 °F

Location of KagoshimaLocation

Historic Weather in Kagoshima — Graph

°F

Kagoshima temperature yesterday

Maximum temperature yesterday: 68 °F (at 2:00 PM)
Minimum temperature yesterday: 52 °F (at 7:00 AM)
Average temperature yesterday: 59 °F

Past Weeks' High & Low Weather Summary

 TemperatureHumidityPressure
High73 °F (Nov 25, 3:00 PM)97% (Nov 24, 9:00 PM)30.39 "Hg (Nov 24, 9:00 PM)
Low45 °F (Nov 15, 7:00 AM)31% (Nov 19, 2:00 PM)29.77 "Hg (Nov 25, 4:00 PM)
Average59 °F72%30.17 "Hg
* Reported Nov 13 4:00 AM — Nov 28 4:00 AM, Kagoshima, Weather by CustomWeather, © 2014

Note: Actual official high and low records may vary slightly from our data, if they occured in-between our weather recording intervals... More about our weather records

Advertising

Kagoshima weather history for previous 24 hours

 ConditionsComfort  
Time TempWeatherWind HumidityBarometerVisibility
4:00 AM
Nov 28
58 °FCool.7 mph82%30.16 "HgN/A
3:00 AM57 °FPassing clouds.7 mph83%30.17 "Hg12 mi
2:00 AM57 °FCool.7 mph84%30.16 "HgN/A
1:00 AM58 °FCool.7 mph84%30.17 "HgN/A
12:00 AM58 °FCool.3 mph84%30.19 "HgN/A
11:00 PM
Nov 27
58 °FCool.8 mph83%30.20 "HgN/A
10:00 PM58 °FCool.6 mph82%30.21 "HgN/A
9:00 PM58 °FPassing clouds.5 mph82%30.21 "Hg12 mi
8:00 PM63 °FMild.5 mph67%30.20 "HgN/A
7:00 PM64 °FMild.6 mph67%30.19 "HgN/A
6:00 PM64 °FPassing clouds.3 mph61%30.17 "Hg12 mi
5:00 PM65 °FMild.2 mph59%30.16 "HgN/A
4:00 PM66 °FMild.2 mph58%30.15 "HgN/A
3:00 PM67 °FPassing clouds.5 mph54%30.14 "Hg12 mi
2:00 PM68 °FMild.5 mph51%30.14 "HgN/A
1:00 PM67 °FMild.3 mph53%30.14 "HgN/A
12:00 PM65 °FPassing clouds.3 mph60%30.15 "Hg12 mi
11:00 AM63 °FMild.3 mph64%30.19 "HgN/A
10:00 AM61 °FCool.7 mph67%30.21 "HgN/A
9:00 AM57 °FPassing clouds.7 mph75%30.21 "Hg12 mi
8:00 AM53 °FCool.7 mph83%30.20 "HgN/A
7:00 AM52 °FCool.8 mph87%30.18 "HgN/A
6:00 AM52 °FClear.5 mph89%30.17 "Hg12 mi
5:00 AM53 °FCool.6 mph82%30.15 "HgN/A
Weather by CustomWeather, © 2014

See weather overviewHow to use our weather pages